Location: ????????
(55.6189°N, 38.3031°E)
Time: 13:20:57
(UTC+00:00)

Cosmos 2082 Rocket - Visible Passes

Search period start: 18 February 2020 00:00
Search period end: 28 February 2020 00:00
Orbit: 835 x 852 km, 71.0° (Epoch: 18 February)

Date Brightness Start Highest point End Pass type
(mag) Time Alt. Az. Time Alt. Az. Time Alt. Az.
18 Feb 4.3 16:09:25 10° NW 16:14:14 30° WSW 16:19:02 10° SSW visible
19 Feb 4.3 15:54:51 10° NW 15:59:43 31° WSW 16:04:35 10° SSW visible
20 Feb 4.3 15:40:17 10° NW 15:45:12 32° WSW 15:50:07 10° SSW visible
21 Feb 4.3 15:25:43 10° NW 15:30:41 33° WSW 15:35:39 10° S visible
26 Feb 4.9 03:43:31 10° SSE 03:48:00 25° ESE 03:52:30 10° NE visible
27 Feb 4.9 03:29:05 10° SSE 03:33:30 24° ESE 03:37:56 10° NE visible
